EW1362 Weather Reports


Display with metric or nautical units.
time (UTC)temp
F
wind
direction
speed
MPH
gust
MPH
rain 1hr
in
rain 24hr
in
rain mn
in
humidity
%
barometer
mb
20260509080642 55 185 4.0 11.0 0.00 0.00 0.00 95 1007.9
20260509080137 55 187 4.0 8.0 0.00 0.00 0.00 95 1007.9
20260509075633 55 191 2.0 6.0 0.00 0.00 0.00 95 1008.0
20260509075126 55 190 3.0 6.0 0.00 0.00 0.00 95 1008.1
20260509074703 55 190 2.0 7.0 0.00 0.00 0.00 95 1008.0
20260509074137 55 190 3.0 8.0 0.00 0.00 0.00 95 1008.0
20260509073633 55 189 3.0 8.0 0.00 0.00 0.00 95 1008.1
20260509073128 55 190 3.0 9.0 0.00 0.00 0.00 95 1008.1
20260509072642 55 190 4.0 9.0 0.00 0.00 0.00 95 1008.2
20260509072138 55 193 3.0 7.0 0.00 0.00 0.00 95 1008.3
20260509071652 55 192 3.0 7.0 0.00 0.00 0.00 95 1008.4
20260509071147 55 191 3.0 6.0 0.00 0.00 0.00 95 1008.4
20260509070642 55 191 1.0 3.0 0.00 0.00 0.00 95 1008.4
20260509070134 55 191 2.0 6.0 0.00 0.00 0.00 95 1008.3
20260509065648 55 191 2.0 6.0 0.00 0.00 0.00 95 1008.3
20260509065202 55 191 3.0 6.0 0.00 0.00 0.00 95 1008.5
20260509064636 55 190 1.0 8.0 0.00 0.00 0.00 95 1008.6
20260509064132 55 190 2.0 8.0 0.00 0.00 0.00 95 1008.8
20260509063649 55 189 4.0 7.0 0.00 0.00 0.00 95 1008.9
20260509063143 55 190 1.0 6.0 0.00 0.00 0.00 95 1008.9
20260509062637 55 190 1.0 6.0 0.00 0.00 0.00 95 1008.9
20260509062135 55 189 0.0 6.0 0.00 0.00 0.00 95 1008.8
20260509061648 55 189 2.0 6.0 0.00 0.00 0.00 95 1008.8
20260509061142 55 190 1.0 3.0 0.00 0.00 0.00 95 1008.8
20260509060659 55 190 1.0 6.0 0.00 0.00 0.00 95 1009.1
20260509060132 55 190 3.0 6.0 0.00 0.00 0.00 95 1009.2
20260509055646 55 189 1.0 7.0 0.00 0.00 0.00 95 1009.4
20260509055200 55 191 3.0 7.0 0.00 0.00 0.00 95 1009.7
20260509054637 55 191 1.0 6.0 0.00 0.00 0.00 95 1009.7
20260509054131 55 192 3.0 6.0 0.00 0.00 0.00 95 1009.7
20260509053627 55 192 3.0 6.0 0.00 0.00 0.00 95 1009.9
20260509053142 55 192 2.0 6.0 0.00 0.00 0.00 95 1009.9
20260509052638 55 192 2.0 7.0 0.00 0.00 0.00 95 1009.9
20260509052133 55 192 2.0 10.0 0.00 0.00 0.00 95 1009.9
20260509051628 55 192 3.0 6.0 0.00 0.00 0.00 95 1009.9
20260509051204 55 192 3.0 6.0 0.00 0.00 0.00 95 1009.8
20260509050638 55 192 2.0 4.0 0.00 0.00 0.00 94 1009.8
20260509050134 55 192 2.0 4.0 0.00 0.00 0.00 94 1009.8
20260509045630 55 192 2.0 4.0 0.00 0.00 0.00 94 1009.8
20260509045126 55 192 2.0 4.0 0.00 0.00 0.00 94 1009.8
20260509044642 55 192 3.0 4.0 0.00 0.00 0.00 94 1009.7
20260509044138 55 191 1.0 6.0 0.00 0.00 0.00 94 1009.7
20260509043634 55 191 2.0 6.0 0.00 0.00 0.00 94 1009.7
20260509043129 55 191 3.0 6.0 0.00 0.00 0.00 94 1009.7
20260509042626 55 192 2.0 7.0 0.00 0.00 0.00 94 1009.7
20260509042142 55 192 4.0 7.0 0.00 0.00 0.00 94 1009.5
20260509041637 55 193 4.0 7.0 0.00 0.00 0.00 94 1009.5
20260509041131 55 194 3.0 6.0 0.00 0.00 0.00 94 1009.9
20260509040648 55 194 1.0 3.0 0.00 0.00 0.00 94 1009.7
20260509040143 55 194 1.0 3.0 0.00 0.00 0.00 94 1009.7
20260509035629 55 194 0.0 1.0 0.00 0.00 0.00 94 1010.2
20260509035145 56 194 0.0 4.0 0.00 0.00 0.00 94 1010.1
20260509034641 56 194 1.0 3.0 0.00 0.00 0.00 94 1010.0
20260509034136 56 194 1.0 3.0 0.00 0.00 0.00 94 1010.0
20260509033631 56 194 1.0 8.0 0.00 0.00 0.00 94 1010.0
20260509033127 56 194 3.0 8.0 0.00 0.00 0.00 94 1009.9
20260509032639 56 192 3.0 7.0 0.00 0.00 0.00 94 1009.9
20260509032153 56 192 4.0 7.0 0.00 0.00 0.00 94 1009.8
20260509031629 56 189 3.0 7.0 0.00 0.00 0.00 94 1009.9
20260509031143 56 189 2.0 7.0 0.00 0.00 0.00 94 1009.8
20260509030639 56 189 3.0 8.0 0.00 0.00 0.00 93 1009.8
20260509030154 56 192 2.0 7.0 0.00 0.00 0.00 93 1009.9
20260509025628 56 191 3.0 6.0 0.00 0.00 0.00 93 1010.2
20260509025144 56 189 2.0 4.0 0.00 0.00 0.00 93 1010.2
20260509024636 56 189 2.0 4.0 0.00 0.00 0.00 93 1010.3
20260509024131 56 188 3.0 4.0 0.00 0.00 0.00 93 1010.1
20260509023626 56 188 1.0 2.0 0.00 0.00 0.00 93 1010.1
20260509023142 56 188 0.0 2.0 0.00 0.00 0.00 93 1010.2
20260509022639 56 188 0.0 3.0 0.00 0.00 0.00 93 1010.1
20260509022156 56 188 1.0 4.0 0.00 0.00 0.00 93 1010.4
20260509021630 56 188 1.0 4.0 0.00 0.00 0.00 93 1010.4
20260509021145 56 177 1.0 4.0 0.00 0.00 0.00 93 1010.5
20260509020641 56 176 1.0 4.0 0.00 0.00 0.00 93 1010.3
20260509020137 56 191 0.0 4.0 0.00 0.00 0.00 93 1010.3
20260509015632 56 191 1.0 4.0 0.00 0.00 0.00 93 1010.1
20260509015129 56 189 2.0 4.0 0.00 0.00 0.00 93 1010.1
20260509014705 56 189 1.0 3.0 0.00 0.00 0.00 93 1010.0
20260509014139 56 189 2.0 6.0 0.00 0.00 0.00 93 1010.1
20260509013635 56 189 2.0 4.0 0.00 0.00 0.00 92 1010.2
20260509013131 56 189 1.0 4.0 0.00 0.00 0.00 92 1010.3
20260509012628 56 189 2.0 4.0 0.00 0.00 0.00 92 1010.2
20260509012144 56 189 2.0 4.0 0.00 0.00 0.00 92 1010.1
20260509011641 56 188 2.0 7.0 0.00 0.00 0.00 92 1010.1
20260509011137 56 188 1.0 7.0 0.00 0.00 0.00 92 1010.1
20260509010632 56 217 2.0 4.0 0.00 0.00 0.00 92 1010.0
20260509010128 56 25 0.0 0.0 0.00 0.00 0.00 92 1009.9
20260509005644 56 25 0.0 0.0 0.00 0.00 0.00 92 1010.0
20260509005138 56 25 0.0 0.0 0.00 0.00 0.00 92 1009.8
20260509004634 56 25 0.0 0.0 0.00 0.00 0.00 92 1009.8
20260509004129 56 25 0.0 0.0 0.00 0.00 0.00 91 1009.7
20260509003643 56 25 0.0 0.0 0.00 0.00 0.00 91 1009.6
20260509003137 56 25 0.0 0.0 0.00 0.00 0.00 91 1009.7
20260509002630 56 25 0.0 0.0 0.00 0.00 0.00 91 1009.6
20260509002141 56 25 0.0 0.0 0.00 0.00 0.00 91 1009.7
20260509001636 56 25 0.0 1.0 0.00 0.00 0.00 91 1009.8
20260509001133 56 25 0.0 2.0 0.00 0.00 0.00 91 1010.0
20260509000629 56 25 0.0 2.0 0.00 0.00 0.00 91 1009.9
20260509000145 56 25 0.0 3.0 0.00 0.00 0.00 91 1009.8
20260508235640 56 25 1.0 3.0 0.00 0.00 0.00 90 1009.9
20260508235155 57 26 0.0 3.0 0.00 0.00 0.00 90 1009.8
20260508234628 57 26 1.0 3.0 0.00 0.00 0.00 90 1009.5
20260508234145 57 27 1.0 4.0 0.00 0.00 0.00 90 1009.7
20260508233700 57 25 2.0 4.0 0.00 0.00 0.00 90 1009.8
20260508233134 57 22 0.0 0.0 0.00 0.00 0.00 89 1009.9
20260508232628 57 21 0.0 0.0 0.00 0.00 0.00 89 1009.9
20260508232143 57 21 0.0 2.0 0.00 0.00 0.00 88 1010.0
20260508231700 57 21 0.0 4.0 0.00 0.00 0.00 88 1010.0
20260508231135 58 21 1.0 4.0 0.00 0.00 0.00 87 1009.9
20260508230629 58 18 0.0 1.0 0.00 0.00 0.00 87 1009.9
20260508230135 58 18 0.0 1.0 0.00 0.00 0.00 86 1010.0
20260508225627 58 18 0.0 4.0 0.00 0.00 0.00 86 1010.0
20260508225144 58 18 1.0 4.0 0.00 0.00 0.00 85 1010.0
20260508224658 58 10 1.0 5.0 0.00 0.00 0.00 84 1009.9
20260508224136 59 19 1.0 3.0 0.00 0.00 0.00 83 1009.8
20260508222631 60 343 1.0 3.0 0.00 0.00 0.00 79 1009.9
20260508222126 60 48 1.0 4.0 0.00 0.00 0.00 77 1009.9
20260508221643 61 35 0.0 4.0 0.00 0.00 0.00 76 1009.9
20260508221138 61 4 1.0 7.0 0.00 0.00 0.00 74 1010.0
20260508220636 62 22 2.0 7.0 0.00 0.00 0.00 73 1010.0
20260508220133 62 193 0.0 2.0 0.00 0.00 0.00 72 1009.7
20260508215706 62 193 0.0 1.0 0.00 0.00 0.00 70 1009.5
20260508215139 63 192 0.0 1.0 0.00 0.00 0.00 69 1009.5
20260508214635 63 192 0.0 1.0 0.00 0.00 0.00 68 1009.5
20260508214131 63 192 0.0 1.0 0.00 0.00 0.00 67 1009.3
20260508213627 63 192 0.0 1.0 0.00 0.00 0.00 66 1009.2
20260508213143 63 192 0.0 3.0 0.00 0.00 0.00 65 1009.2
20260508212637 63 198 1.0 6.0 0.00 0.00 0.00 64 1009.3
20260508212131 64 201 2.0 9.0 0.00 0.00 0.00 63 1009.4
20260508211628 64 202 2.0 9.0 0.00 0.00 0.00 62 1009.4
20260508211144 65 175 1.0 4.0 0.00 0.00 0.00 62 1009.6
20260508210641 65 162 0.0 4.0 0.00 0.00 0.00 62 1009.5
20260508210159 65 160 1.0 7.0 0.00 0.00 0.00 60 1009.4
20260508205631 65 160 2.0 8.0 0.00 0.00 0.00 58 1009.3
20260508205126 65 196 3.0 8.0 0.00 0.00 0.00 57 1009.4
20260508204639 65 195 3.0 9.0 0.00 0.00 0.00 56 1009.3
20260508204135 65 192 4.0 9.0 0.00 0.00 0.00 56 1009.3
20260508203632 65 192 3.0 8.0 0.00 0.00 0.00 56 1009.3
20260508203129 65 196 3.0 15.0 0.00 0.00 0.00 56 1009.3
20260508202645 66 198 4.0 15.0 0.00 0.00 0.00 55 1009.4
20260508202201 66 194 6.0 12.0 0.00 0.00 0.00 55 1009.5
20260508201634 66 192 3.0 11.0 0.00 0.00 0.00 55 1009.6
20260508201130 66 184 4.0 11.0 0.00 0.00 0.00 54 1009.6
20260508200626 66 192 5.0 11.0 0.00 0.00 0.00 54 1009.6
20260508200141 66 194 5.0 11.0 0.00 0.00 0.00 55 1009.8
20260508195653 66 198 3.0 11.0 0.00 0.00 0.00 55 1009.8
20260508195125 66 200 3.0 12.0 0.00 0.00 0.00 56 1009.9
20260508194640 65 199 4.0 12.0 0.00 0.00 0.00 56 1010.0
20260508194134 65 185 5.0 10.0 0.00 0.00 0.00 56 1010.1
20260508193652 65 186 4.0 13.0 0.00 0.00 0.00 55 1010.1
20260508193126 65 196 5.0 13.0 0.00 0.00 0.00 55 1010.0
20260508192642 65 191 5.0 11.0 0.00 0.00 0.00 55 1010.0
20260508192138 65 200 7.0 13.0 0.00 0.00 0.00 55 1010.2
20260508191633 65 198 5.0 12.0 0.00 0.00 0.00 57 1010.4
20260508191127 65 185 4.0 9.0 0.00 0.00 0.00 57 1010.5
20260508190641 65 198 5.0 9.0 0.00 0.00 0.00 57 1010.6
20260508190135 65 198 6.0 9.0 0.00 0.00 0.00 56 1010.7
20260508185630 65 196 3.0 12.0 0.00 0.00 0.00 56 1010.8
20260508185126 65 196 5.0 12.0 0.00 0.00 0.00 56 1010.8
20260508184642 65 196 4.0 8.0 0.00 0.00 0.00 56 1010.9
20260508184139 65 200 3.0 9.0 0.00 0.00 0.00 56 1010.9
20260508183633 65 196 3.0 10.0 0.00 0.00 0.00 56 1011.0
20260508183127 65 202 5.0 10.0 0.00 0.00 0.00 55 1010.9
20260508182640 66 201 2.0 14.0 0.00 0.00 0.00 55 1011.0
20260508182136 66 197 2.0 10.0 0.00 0.00 0.00 56 1011.0
20260508181633 66 190 4.0 12.0 0.00 0.00 0.00 55 1011.2
20260508181129 66 185 5.0 11.0 0.00 0.00 0.00 55 1011.2
20260508180625 65 196 3.0 12.0 0.00 0.00 0.00 55 1011.3
20260508180136 65 198 5.0 12.0 0.00 0.00 0.00 55 1011.3
20260508175632 65 189 3.0 13.0 0.00 0.00 0.00 55 1011.4
20260508175205 65 161 6.0 13.0 0.00 0.00 0.00 53 1011.4
20260508174640 65 184 7.0 15.0 0.00 0.00 0.00 54 1011.5
20260508174137 65 213 7.0 15.0 0.00 0.00 0.00 52 1011.5
20260508173634 65 185 8.0 16.0 0.00 0.00 0.00 53 1011.6
20260508173129 66 210 4.0 16.0 0.00 0.00 0.00 52 1011.6
20260508172644 66 216 8.0 15.0 0.00 0.00 0.00 53 1011.6
20260508172159 66 202 7.0 14.0 0.00 0.00 0.00 52 1011.6
20260508171653 66 193 5.0 12.0 0.00 0.00 0.00 56 1011.7
20260508171128 66 190 4.0 12.0 0.00 0.00 0.00 56 1011.8
20260508170639 66 197 8.0 14.0 0.00 0.00 0.00 55 1012.0
20260508170155 65 196 5.0 14.0 0.00 0.00 0.00 58 1012.0
20260508165626 65 231 10.0 14.0 0.00 0.00 0.00 56 1012.0
20260508165200 64 202 9.0 14.0 0.00 0.00 0.00 57 1012.3
20260508164634 64 189 9.0 14.0 0.00 0.00 0.00 57 1012.4
20260508164129 64 197 6.0 15.0 0.00 0.00 0.00 57 1012.5
20260508163644 63 200 8.0 15.0 0.00 0.00 0.00 57 1012.7
20260508163140 63 188 9.0 15.0 0.00 0.00 0.00 57 1012.7
20260508162643 63 187 6.0 17.0 0.00 0.00 0.00 57 1012.8
20260508162138 64 198 7.0 17.0 0.22 0.22 0.22 56 1012.8
20260508161634 64 196 7.0 12.0 4.67 6.18 6.18 58 1012.8
20260508161127 63 200 4.0 10.0 5.40 6.06 6.06 58 1012.8
20260508160702 63 196 2.0 11.0 5.11 5.56 5.56 59 1013.0
20260508160137 63 199 7.0 11.0 4.77 5.03 5.03 58 1012.9
20260508155631 63 193 2.0 14.0 4.46 4.72 4.72 59 1013.0
20260508155148 63 187 8.0 13.0 3.47 3.73 3.73 58 1013.0
20260508154645 63 179 4.0 12.0 3.26 3.52 3.52 58 1013.1
20260508154139 63 183 5.0 12.0 3.05 3.31 3.31 59 1013.2
20260508153632 63 196 4.0 12.0 2.45 2.71 2.71 58 1013.1
20260508153128 63 198 3.0 16.0 1.27 1.53 1.53 58 1013.1
20260508152642 63 210 7.0 16.0 1.25 1.51 1.51 57 1013.1
20260508152137 63 199 6.0 13.0 1.25 1.51 1.51 58 1013.1
20260508151632 63 196 4.0 13.0 1.07 1.33 1.33 58 1013.1
20260508151129 62 202 6.0 11.0 0.36 0.62 0.62 57 1013.1
20260508150703 62 196 4.0 12.0 0.19 0.45 0.45 58 1013.1
20260508150135 62 202 6.0 13.0 0.00 0.26 0.26 58 1013.2
20260508145627 62 191 6.0 11.0 0.00 0.26 0.26 60 1013.3
20260508145137 62 200 5.0 12.0 0.00 0.26 0.26 60 1013.3
20260508144631 61 198 5.0 16.0 0.00 0.26 0.26 61 1013.4
20260508144127 61 199 3.0 16.0 0.00 0.26 0.26 59 1013.5
20260508143704 61 199 6.0 13.0 0.00 0.26 0.26 59 1013.4
20260508143137 61 204 4.0 13.0 0.00 0.26 0.26 60 1013.5
20260508142630 61 185 4.0 15.0 0.00 0.26 0.26 60 1013.5
20260508142144 60 191 6.0 15.0 0.00 0.26 0.26 60 1013.4
20260508141639 60 203 6.0 12.0 0.00 0.26 0.26 61 1013.5
20260508141135 60 190 3.0 15.0 0.00 0.26 0.26 60 1013.5
20260508140630 59 194 6.0 15.0 0.00 0.26 0.26 61 1013.6
20260508140145 59 191 5.0 13.0 0.00 0.26 0.26 61 1013.7
20260508135659 59 200 4.0 14.0 0.00 0.26 0.26 61 1013.7
20260508135133 58 198 5.0 14.0 0.00 0.26 0.26 62 1013.7
20260508134648 58 188 4.0 10.0 0.00 0.26 0.26 62 1013.7
20260508134142 58 189 4.0 10.0 0.07 0.26 0.26 62 1013.8
20260508133657 57 191 4.0 12.0 0.26 0.26 0.26 61 1013.8
20260508133130 57 208 5.0 11.0 0.26 0.26 0.26 62 1013.9
20260508132643 56 202 6.0 12.0 0.26 0.26 0.26 63 1013.9
20260508132138 56 200 6.0 12.0 0.26 0.26 0.26 64 1013.9
20260508131632 55 194 3.0 14.0 0.26 0.26 0.26 65 1013.9
20260508131127 55 187 5.0 11.0 0.26 0.26 0.26 65 1013.9
20260508130641 54 198 4.0 12.0 0.26 0.26 0.26 66 1013.9
20260508130136 54 201 4.0 12.0 0.26 0.26 0.26 66 1013.9
20260508125629 54 191 4.0 12.0 0.26 0.26 0.26 66 1013.9
20260508125143 53 189 5.0 12.0 0.26 0.26 0.26 67 1013.9
20260508124700 53 186 5.0 13.0 0.26 0.26 0.26 67 1013.9
20260508124135 53 206 6.0 13.0 0.19 0.19 0.19 68 1014.0
20260508123705 52 196 3.0 11.0 0.00 0.00 0.00 68 1013.9
20260508123139 52 187 6.0 10.0 0.00 0.00 0.00 68 1013.9
20260508122636 52 189 4.0 9.0 0.00 0.00 0.00 69 1014.0
20260508122131 51 189 4.0 7.0 0.00 0.00 0.00 69 1013.9
20260508121645 51 194 2.0 8.0 0.00 0.00 0.00 69 1013.9
20260508121138 51 182 2.0 8.0 0.00 0.00 0.00 70 1013.9
20260508120653 50 195 2.0 7.0 0.00 0.00 0.00 70 1013.9
20260508120128 50 189 2.0 9.0 0.00 0.00 0.00 70 1013.9
20260508115644 50 189 2.0 9.0 0.00 0.00 0.00 70 1013.8
20260508115141 50 195 2.0 6.0 0.00 0.00 0.00 70 1013.7
20260508114634 49 193 2.0 6.0 0.00 0.00 0.00 70 1013.7
20260508114149 49 192 2.0 4.0 0.00 0.00 0.00 70 1013.6
20260508113644 49 193 2.0 4.0 0.00 0.00 0.00 70 1013.6
20260508113139 49 188 2.0 4.0 0.00 0.00 0.00 70 1013.6
20260508112655 49 188 2.0 4.0 0.00 0.00 0.00 70 1013.6
20260508112130 49 188 2.0 4.0 0.00 0.00 0.00 70 1013.7
20260508111625 49 187 1.0 3.0 0.00 0.00 0.00 70 1013.6
20260508111140 49 187 1.0 3.0 0.00 0.00 0.00 70 1013.5
20260508110635 49 187 1.0 3.0 0.00 0.00 0.00 69 1013.4
20260508110132 49 187 1.0 4.0 0.00 0.00 0.00 69 1013.4
20260508105626 49 187 2.0 4.0 0.00 0.00 0.00 69 1013.5
20260508105140 49 189 1.0 3.0 0.00 0.00 0.00 68 1013.5
20260508104636 49 189 1.0 3.0 0.00 0.00 0.00 68 1013.5
20260508104133 49 189 1.0 3.0 0.00 0.00 0.00 67 1013.5
20260508103626 50 188 1.0 3.0 0.00 0.00 0.00 67 1013.4
20260508103141 50 188 0.0 4.0 0.00 0.00 0.00 66 1013.4
20260508102657 50 188 2.0 4.0 0.00 0.00 0.00 66 1013.4
20260508102130 50 187 1.0 4.0 0.00 0.00 0.00 66 1013.3
20260508101627 50 187 2.0 6.0 0.00 0.00 0.00 66 1013.4
20260508101141 50 187 3.0 6.0 0.00 0.00 0.00 66 1013.3
20260508100634 50 189 1.0 4.0 0.00 0.00 0.00 66 1013.3
20260508100126 51 189 2.0 4.0 0.00 0.00 0.00 65 1013.3
20260508095656 51 189 1.0 4.0 0.00 0.00 0.00 65 1013.4
20260508095130 51 189 2.0 7.0 0.00 0.00 0.00 65 1013.4
20260508094628 51 194 1.0 4.0 0.00 0.00 0.00 64 1013.4
20260508094143 51 192 0.0 0.0 0.00 0.00 0.00 64 1013.4
20260508093640 51 192 0.0 0.0 0.00 0.00 0.00 64 1013.4
20260508093136 52 192 0.0 0.0 0.00 0.00 0.00 64 1013.4
20260508092630 52 192 0.0 0.0 0.00 0.00 0.00 64 1013.4
20260508092145 52 192 0.0 0.0 0.00 0.00 0.00 64 1013.5
20260508091703 52 192 0.0 0.0 0.00 0.00 0.00 64 1013.5
20260508091137 52 192 0.0 0.0 0.00 0.00 0.00 63 1013.4
20260508090633 52 192 0.0 0.0 0.00 0.00 0.00 63 1013.5
20260508090128 52 192 0.0 0.0 0.00 0.00 0.00 63 1013.6
20260508085702 52 192 0.0 0.0 0.00 0.00 0.00 63 1013.7
20260508085157 52 192 0.0 0.0 0.00 0.00 0.00 63 1013.6
20260508084653 52 192 0.0 2.0 0.00 0.00 0.00 63 1013.6
20260508084141 52 192 1.0 2.0 0.00 0.00 0.00 62 1013.6
20260508083637 52 192 0.0 2.0 0.00 0.00 0.00 62 1013.7
20260508083154 52 192 1.0 3.0 0.00 0.00 0.00 62 1013.7
20260508082630 53 192 1.0 4.0 0.00 0.00 0.00 62 1013.7
20260508082144 52 192 2.0 6.0 0.00 0.00 0.00 62 1013.8
20260508081639 52 192 2.0 6.0 0.00 0.00 0.00 62 1013.8
20260508081135 52 192 2.0 4.0 0.00 0.00 0.00 63 1013.8